Meteo18 Weather Cam more information Meteo18 Weather Cam


Thunder radar more information blitzortung!


Rain radar more information rain snow radar



Select another period ( hide this area )

Units Period Custom range Directly to
Metric English Both
Daily Weekly Monthly Yearly
use both date-selectors for a custom range
previous Day
With this date

WeatherUnderground graphs for this period ( click here )


Daily Summary for Sunday 23 September 2018
Time Temp. ( °C ) Dew pt. ( °C ) Wind ( km/h ) from Gust ( km/h ) Pressure ( hPa ) Humid.( % ) Rainrate ( cm )
High20,0 17,4 28,8 SW ( 952/1798 ) 37,0 1020,2 94 -
Average18,7 15,7 13,9 SW #67/129 22,8 1019,3 83 -
Low17,9 11,0 1,4   12,9 1018,5 57 -
Daily Tabular details for Sunday 23 September 2018
Time Temp. ( °C ) Dew pt. ( °C ) Wind ( km/h ) from Gust ( km/h ) Pressure ( hPa ) Humid.( % ) Rainrate ( cm )
00:04 19,8 11,0 14,3 West 24,1 1020,2 57 -
00:08 19,9 11,1 6,4 SW 24,1 1020,2 57 -
00:14 19,9 11,1 16,3 WSW 27,4 1020,2 57 -
00:18 19,9 11,4 11,1 WSW 29,0 1020,2 58 -
00:24 19,9 11,6 14,3 SSW 22,5 1020,2 59 -
00:28 19,9 11,6 11,1 West 20,9 1020,2 59 -
00:34 19,9 11,9 11,1 SW 22,5 1020,2 60 -
00:38 19,9 12,2 27,4 SW 30,6 1020,2 61 -
00:44 19,9 12,4 13,0 WSW 32,2 1020,2 62 -
00:48 20,0 12,5 17,7 West 29,0 1019,9 62 -
00:54 20,0 12,5 9,7 SW 25,7 1020,2 62 -
00:58 20,0 12,7 19,5 SW 30,6 1020,2 63 -
01:04 19,9 12,6 7,9 SSW 20,9 1020,2 63 -
01:08 19,9 12,9 14,3 SW 30,6 1020,2 64 -
01:14 19,9 13,1 17,7 WSW 30,6 1020,2 65 -
01:18 19,9 13,4 19,5 SW 25,7 1020,2 66 -
01:24 19,9 13,4 16,3 WSW 27,4 1019,9 66 -
01:28 19,9 13,4 13,0 SSW 25,7 1019,9 66 -
01:34 19,9 13,6 11,1 West 27,4 1019,9 67 -
01:38 19,9 13,6 24,1 SW 24,1 1019,9 67 -
01:44 19,9 13,8 14,3 WSW 30,6 1019,9 68 -
01:48 19,9 13,8 16,3 SW 20,9 1019,9 68 -
01:54 19,8 13,9 17,7 SSW 27,4 1020,2 69 -
01:58 19,8 13,9 13,0 SW 30,6 1020,2 69 -
02:04 19,8 14,2 13,0 SW 22,5 1020,2 70 -
02:08 19,8 14,2 14,3 WSW 22,5 1020,2 70 -
02:14 19,7 14,3 13,0 WSW 22,5 1020,2 71 -
02:18 19,7 14,3 11,1 SW 20,9 1020,2 71 -
02:24 19,7 14,5 7,9 WSW 22,5 1020,2 72 -
02:28 19,6 14,6 7,9 SW 29,0 1019,9 73 -
02:34 19,6 14,6 17,7 WSW 24,1 1020,2 73 -
02:38 19,6 14,8 11,1 SW 19,3 1020,2 74 -
02:44 19,6 14,8 9,7 South 24,1 1020,2 74 -
02:48 19,6 14,8 16,3 WSW 17,7 1020,2 74 -
02:54 19,5 14,7 13,0 SW 22,5 1020,2 74 -
02:58 19,5 14,9 9,7 WSW 16,1 1020,2 75 -
03:04 19,4 15,1 7,9 WSW 12,9 1020,2 76 -
03:08 19,4 15,1 1,4 SW 16,1 1020,2 76 -
03:14 19,3 15,0 13,0 SW 17,7 1019,9 76 -
03:18 19,3 15,2 28,8 WSW 37,0 1019,9 77 -
03:24 19,2 15,5 9,7 West 19,3 1019,9 79 -
03:28 19,1 15,6 13,0 SW 22,5 1019,9 80 -
03:34 19,1 15,8 11,1 West 22,5 1019,9 81 -
03:38 19,0 15,7 9,7 WSW 16,1 1019,9 81 -
03:44 18,8 15,9 4,7 West 22,5 1019,9 83 -
03:48 18,7 15,8 13,0 SW 24,1 1019,9 83 -
03:54 18,7 15,9 11,1 SW 22,5 1019,9 84 -
03:58 18,7 15,9 22,7 SW 24,1 1019,5 84 -
04:04 18,7 15,9 9,7 SW 14,5 1019,5 84 -
04:08 18,7 15,9 9,7 WSW 29,0 1019,5 84 -
04:14 18,6 16,0 17,7 SW 25,7 1019,5 85 -
04:18 18,6 16,0 16,3 SW 22,5 1019,5 85 -
04:24 18,6 16,2 9,7 West 19,3 1019,5 86 -
04:28 18,6 16,2 16,3 SW 24,1 1019,5 86 -
04:34 18,5 16,3 17,7 SSW 25,7 1019,5 87 -
04:38 18,4 16,2 9,7 SW 24,1 1019,2 87 -
04:44 18,3 16,3 11,1 WSW 24,1 1019,2 88 -
04:48 18,3 16,3 14,3 SW 19,3 1019,2 88 -
04:54 18,3 16,3 16,3 SW 22,5 1019,2 88 -
04:58 18,3 16,3 19,5 SW 29,0 1019,2 88 -
05:04 18,4 16,2 24,1 SW 29,0 1019,2 87 -
05:08 18,4 16,4 22,7 SW 25,7 1019,2 88 -
05:14 18,3 16,3 16,3 SSW 25,7 1019,2 88 -
05:18 18,3 16,5 9,7 WSW 30,6 1019,2 89 -
05:24 18,1 16,4 11,1 SW 20,9 1018,8 90 -
05:28 18,1 16,4 19,5 SW 19,3 1019,2 90 -
05:34 18,0 16,3 20,9 SW 25,7 1018,8 90 -
05:38 17,9 16,4 17,7 SW 20,9 1018,8 91 -
05:44 17,9 16,4 11,1 WSW 20,9 1018,8 91 -
05:48 17,9 16,4 16,3 WSW 24,1 1018,8 91 -
05:54 17,9 16,4 17,7 WSW 19,3 1018,8 91 -
05:58 17,9 16,4 7,9 SW 14,5 1018,8 91 -
06:04 17,9 16,6 11,1 SW 20,9 1018,8 92 -
06:08 17,9 16,6 3,2 West 17,7 1018,8 92 -
06:14 18,0 16,7 20,9 WSW 25,7 1018,8 92 -
06:18 18,0 16,7 14,3 SW 22,5 1018,8 92 -
06:24 17,9 16,6 9,7 SW 20,9 1018,5 92 -
06:28 17,9 16,6 16,3 SW 20,9 1018,5 92 -
06:34 17,9 16,6 19,5 WSW 27,4 1018,8 92 -
06:38 17,9 16,6 6,4 WSW 22,5 1018,8 92 -
06:44 18,0 16,7 14,3 SW 16,1 1018,8 92 -
06:48 18,1 16,8 14,3 SW 22,5 1018,8 92 -
06:54 18,1 16,8 6,4 WSW 19,3 1018,8 92 -
06:58 18,1 16,8 7,9 SSW 19,3 1018,8 92 -
07:03 18,1 16,8 7,9 SSW 20,9 1018,8 92 -
07:09 18,0 16,7 19,5 SW 27,4 1018,8 92 -
07:13 17,9 16,6 13,0 SW 20,9 1018,8 92 -
07:19 17,9 16,8 11,1 WSW 24,1 1018,8 93 -
07:23 17,9 16,8 13,0 SW 22,5 1018,5 93 -
07:29 17,9 16,8 16,3 SSW 20,9 1018,5 93 -
07:33 18,0 16,9 17,7 WSW 27,4 1018,5 93 -
07:39 17,9 16,8 25,9 SW 25,7 1018,5 93 -
07:43 17,9 16,8 14,3 SSW 24,1 1018,5 93 -
07:49 17,9 16,8 19,5 WSW 24,1 1018,5 93 -
07:53 18,0 16,9 17,7 SSW 22,5 1018,8 93 -
07:59 17,9 16,8 17,7 WSW 22,5 1018,5 93 -
08:03 17,9 16,8 7,9 SW 25,7 1018,8 93 -
08:09 17,9 16,8 14,3 WSW 20,9 1018,8 93 -
08:13 17,9 16,8 14,3 SW 19,3 1018,8 93 -
08:19 17,9 16,8 11,1 SW 19,3 1018,8 93 -
08:23 17,9 16,8 9,7 SW 16,1 1018,8 93 -
08:29 17,9 16,8 13,0 SW 22,5 1018,8 93 -
08:33 17,9 16,8 11,1 SW 17,7 1018,8 93 -
08:39 17,9 16,8 11,1 SW 19,3 1018,8 93 -
08:43 17,9 16,8 17,7 SW 19,3 1018,8 93 -
08:49 17,9 16,9 14,3 SW 20,9 1018,8 94 -
08:53 17,9 16,9 13,0 SSW 17,7 1018,8 94 -
08:59 17,9 16,9 13,0 SW 24,1 1018,8 94 -
09:03 18,0 17,0 16,3 WSW 20,9 1018,8 94 -
09:09 18,1 17,1 13,0 SW 20,9 1018,8 94 -
09:13 18,1 17,1 11,1 SW 16,1 1018,8 94 -
09:19 18,1 17,1 13,0 West 19,3 1018,8 94 -
09:23 18,1 17,1 6,4 SW 19,3 1018,8 94 -
09:29 18,1 17,1 17,7 SW 20,9 1018,8 94 -
09:33 18,1 17,1 13,0 SW 20,9 1018,8 94 -
09:39 18,1 17,1 13,0 SSW 19,3 1018,8 94 -
09:43 18,1 17,1 14,3 WSW 25,7 1018,8 94 -
09:49 18,1 17,1 16,3 SW 24,1 1018,8 94 -
09:53 18,1 17,1 11,1 SW 19,3 1018,8 94 -
09:59 18,2 17,2 13,0 SW 16,1 1018,8 94 -
10:03 18,2 17,2 7,9 SW 17,7 1018,8 94 -
10:09 18,2 17,2 16,3 SW 19,3 1018,8 94 -
10:13 18,3 17,3 17,7 SSW 22,5 1018,8 94 -
10:19 18,3 17,3 19,5 WSW 19,3 1018,8 94 -
10:23 18,3 17,3 19,5 WSW 22,5 1018,8 94 -
10:29 18,4 17,4 13,0 SSW 22,5 1018,8 94 -
10:33 18,4 17,2 16,3 SW 24,1 1018,8 93 -
10:39 18,4 17,2 14,3 SSW 27,4 1018,8 93 -
10:43 18,5 17,3 16,3 WSW 24,1 1018,8 93 -
Daily Summary for Sunday 23 September 2018
Time Temp. ( °C ) Dew pt. ( °C ) Wind ( km/h ) from Gust ( km/h ) Pressure ( hPa ) Humid.( % ) Rainrate ( cm )
High20,0 17,4 28,8 SW ( 952/1798 ) 37,0 1020,2 94 -
Average18,7 15,7 13,9 SW #67/129 22,8 1019,3 83 -
Low17,9 11,0 1,4   12,9 1018,5 57 -
Daily Tabular details for Sunday 23 September 2018
Time Temp. ( °C ) Dew pt. ( °C ) Wind ( km/h ) from Gust ( km/h ) Pressure ( hPa ) Humid.( % ) Rainrate ( cm )
00:04 19,8 11,0 14,3 West 24,1 1020,2 57 -
00:08 19,9 11,1 6,4 SW 24,1 1020,2 57 -
00:14 19,9 11,1 16,3 WSW 27,4 1020,2 57 -
00:18 19,9 11,4 11,1 WSW 29,0 1020,2 58 -
00:24 19,9 11,6 14,3 SSW 22,5 1020,2 59 -
00:28 19,9 11,6 11,1 West 20,9 1020,2 59 -
00:34 19,9 11,9 11,1 SW 22,5 1020,2 60 -
00:38 19,9 12,2 27,4 SW 30,6 1020,2 61 -
00:44 19,9 12,4 13,0 WSW 32,2 1020,2 62 -
00:48 20,0 12,5 17,7 West 29,0 1019,9 62 -
00:54 20,0 12,5 9,7 SW 25,7 1020,2 62 -
00:58 20,0 12,7 19,5 SW 30,6 1020,2 63 -
01:04 19,9 12,6 7,9 SSW 20,9 1020,2 63 -
01:08 19,9 12,9 14,3 SW 30,6 1020,2 64 -
01:14 19,9 13,1 17,7 WSW 30,6 1020,2 65 -
01:18 19,9 13,4 19,5 SW 25,7 1020,2 66 -
01:24 19,9 13,4 16,3 WSW 27,4 1019,9 66 -
01:28 19,9 13,4 13,0 SSW 25,7 1019,9 66 -
01:34 19,9 13,6 11,1 West 27,4 1019,9 67 -
01:38 19,9 13,6 24,1 SW 24,1 1019,9 67 -
01:44 19,9 13,8 14,3 WSW 30,6 1019,9 68 -
01:48 19,9 13,8 16,3 SW 20,9 1019,9 68 -
01:54 19,8 13,9 17,7 SSW 27,4 1020,2 69 -
01:58 19,8 13,9 13,0 SW 30,6 1020,2 69 -
02:04 19,8 14,2 13,0 SW 22,5 1020,2 70 -
02:08 19,8 14,2 14,3 WSW 22,5 1020,2 70 -
02:14 19,7 14,3 13,0 WSW 22,5 1020,2 71 -
02:18 19,7 14,3 11,1 SW 20,9 1020,2 71 -
02:24 19,7 14,5 7,9 WSW 22,5 1020,2 72 -
02:28 19,6 14,6 7,9 SW 29,0 1019,9 73 -
02:34 19,6 14,6 17,7 WSW 24,1 1020,2 73 -
02:38 19,6 14,8 11,1 SW 19,3 1020,2 74 -
02:44 19,6 14,8 9,7 South 24,1 1020,2 74 -
02:48 19,6 14,8 16,3 WSW 17,7 1020,2 74 -
02:54 19,5 14,7 13,0 SW 22,5 1020,2 74 -
02:58 19,5 14,9 9,7 WSW 16,1 1020,2 75 -
03:04 19,4 15,1 7,9 WSW 12,9 1020,2 76 -
03:08 19,4 15,1 1,4 SW 16,1 1020,2 76 -
03:14 19,3 15,0 13,0 SW 17,7 1019,9 76 -
03:18 19,3 15,2 28,8 WSW 37,0 1019,9 77 -
03:24 19,2 15,5 9,7 West 19,3 1019,9 79 -
03:28 19,1 15,6 13,0 SW 22,5 1019,9 80 -
03:34 19,1 15,8 11,1 West 22,5 1019,9 81 -
03:38 19,0 15,7 9,7 WSW 16,1 1019,9 81 -
03:44 18,8 15,9 4,7 West 22,5 1019,9 83 -
03:48 18,7 15,8 13,0 SW 24,1 1019,9 83 -
03:54 18,7 15,9 11,1 SW 22,5 1019,9 84 -
03:58 18,7 15,9 22,7 SW 24,1 1019,5 84 -
04:04 18,7 15,9 9,7 SW 14,5 1019,5 84 -
04:08 18,7 15,9 9,7 WSW 29,0 1019,5 84 -
04:14 18,6 16,0 17,7 SW 25,7 1019,5 85 -
04:18 18,6 16,0 16,3 SW 22,5 1019,5 85 -
04:24 18,6 16,2 9,7 West 19,3 1019,5 86 -
04:28 18,6 16,2 16,3 SW 24,1 1019,5 86 -
04:34 18,5 16,3 17,7 SSW 25,7 1019,5 87 -
04:38 18,4 16,2 9,7 SW 24,1 1019,2 87 -
04:44 18,3 16,3 11,1 WSW 24,1 1019,2 88 -
04:48 18,3 16,3 14,3 SW 19,3 1019,2 88 -
04:54 18,3 16,3 16,3 SW 22,5 1019,2 88 -
04:58 18,3 16,3 19,5 SW 29,0 1019,2 88 -
05:04 18,4 16,2 24,1 SW 29,0 1019,2 87 -
05:08 18,4 16,4 22,7 SW 25,7 1019,2 88 -
05:14 18,3 16,3 16,3 SSW 25,7 1019,2 88 -
05:18 18,3 16,5 9,7 WSW 30,6 1019,2 89 -
05:24 18,1 16,4 11,1 SW 20,9 1018,8 90 -
05:28 18,1 16,4 19,5 SW 19,3 1019,2 90 -
05:34 18,0 16,3 20,9 SW 25,7 1018,8 90 -
05:38 17,9 16,4 17,7 SW 20,9 1018,8 91 -
05:44 17,9 16,4 11,1 WSW 20,9 1018,8 91 -
05:48 17,9 16,4 16,3 WSW 24,1 1018,8 91 -
05:54 17,9 16,4 17,7 WSW 19,3 1018,8 91 -
05:58 17,9 16,4 7,9 SW 14,5 1018,8 91 -
06:04 17,9 16,6 11,1 SW 20,9 1018,8 92 -
06:08 17,9 16,6 3,2 West 17,7 1018,8 92 -
06:14 18,0 16,7 20,9 WSW 25,7 1018,8 92 -
06:18 18,0 16,7 14,3 SW 22,5 1018,8 92 -
06:24 17,9 16,6 9,7 SW 20,9 1018,5 92 -
06:28 17,9 16,6 16,3 SW 20,9 1018,5 92 -
06:34 17,9 16,6 19,5 WSW 27,4 1018,8 92 -
06:38 17,9 16,6 6,4 WSW 22,5 1018,8 92 -
06:44 18,0 16,7 14,3 SW 16,1 1018,8 92 -
06:48 18,1 16,8 14,3 SW 22,5 1018,8 92 -
06:54 18,1 16,8 6,4 WSW 19,3 1018,8 92 -
06:58 18,1 16,8 7,9 SSW 19,3 1018,8 92 -
07:03 18,1 16,8 7,9 SSW 20,9 1018,8 92 -
07:09 18,0 16,7 19,5 SW 27,4 1018,8 92 -
07:13 17,9 16,6 13,0 SW 20,9 1018,8 92 -
07:19 17,9 16,8 11,1 WSW 24,1 1018,8 93 -
07:23 17,9 16,8 13,0 SW 22,5 1018,5 93 -
07:29 17,9 16,8 16,3 SSW 20,9 1018,5 93 -
07:33 18,0 16,9 17,7 WSW 27,4 1018,5 93 -
07:39 17,9 16,8 25,9 SW 25,7 1018,5 93 -
07:43 17,9 16,8 14,3 SSW 24,1 1018,5 93 -
07:49 17,9 16,8 19,5 WSW 24,1 1018,5 93 -
07:53 18,0 16,9 17,7 SSW 22,5 1018,8 93 -
07:59 17,9 16,8 17,7 WSW 22,5 1018,5 93 -
08:03 17,9 16,8 7,9 SW 25,7 1018,8 93 -
08:09 17,9 16,8 14,3 WSW 20,9 1018,8 93 -
08:13 17,9 16,8 14,3 SW 19,3 1018,8 93 -
08:19 17,9 16,8 11,1 SW 19,3 1018,8 93 -
08:23 17,9 16,8 9,7 SW 16,1 1018,8 93 -
08:29 17,9 16,8 13,0 SW 22,5 1018,8 93 -
08:33 17,9 16,8 11,1 SW 17,7 1018,8 93 -
08:39 17,9 16,8 11,1 SW 19,3 1018,8 93 -
08:43 17,9 16,8 17,7 SW 19,3 1018,8 93 -
08:49 17,9 16,9 14,3 SW 20,9 1018,8 94 -
08:53 17,9 16,9 13,0 SSW 17,7 1018,8 94 -
08:59 17,9 16,9 13,0 SW 24,1 1018,8 94 -
09:03 18,0 17,0 16,3 WSW 20,9 1018,8 94 -
09:09 18,1 17,1 13,0 SW 20,9 1018,8 94 -
09:13 18,1 17,1 11,1 SW 16,1 1018,8 94 -
09:19 18,1 17,1 13,0 West 19,3 1018,8 94 -
09:23 18,1 17,1 6,4 SW 19,3 1018,8 94 -
09:29 18,1 17,1 17,7 SW 20,9 1018,8 94 -
09:33 18,1 17,1 13,0 SW 20,9 1018,8 94 -
09:39 18,1 17,1 13,0 SSW 19,3 1018,8 94 -
09:43 18,1 17,1 14,3 WSW 25,7 1018,8 94 -
09:49 18,1 17,1 16,3 SW 24,1 1018,8 94 -
09:53 18,1 17,1 11,1 SW 19,3 1018,8 94 -
09:59 18,2 17,2 13,0 SW 16,1 1018,8 94 -
10:03 18,2 17,2 7,9 SW 17,7 1018,8 94 -
10:09 18,2 17,2 16,3 SW 19,3 1018,8 94 -
10:13 18,3 17,3 17,7 SSW 22,5 1018,8 94 -
10:19 18,3 17,3 19,5 WSW 19,3 1018,8 94 -
10:23 18,3 17,3 19,5 WSW 22,5 1018,8 94 -
10:29 18,4 17,4 13,0 SSW 22,5 1018,8 94 -
10:33 18,4 17,2 16,3 SW 24,1 1018,8 93 -
10:39 18,4 17,2 14,3 SSW 27,4 1018,8 93 -
10:43 18,5 17,3 16,3 WSW 24,1 1018,8 93 -

Download your copy of this data-set  here

Our weather-data as stored at Weather Underground. Script developed by Jim McMurry. Adapted for the template by Leuven-Template.eu

You find our weather info also at:

Weather Underground

Equipment we use:

Weather-station
Davis Vue

Weather-program
Meteobridge

Weather-server
Raspberry PI 2 B+

Provider
1 and 1

Davis Vue

Meteobridge

Raspberry PI 2 B+

1 and 1